Zurück zum Katalog

IUS R/B(1)

AktivGTO
NORAD 16118·ROCKET BODY·🇺🇸 United States

Gestartet Oct 3, 1985 von Cape Canaveral Space Force Station

Loading…

TLE

VeraltetSource: Space-Track

Epoche: Sep 12, 2026, 01:24 UTC

1 16118U 85092D   26255.05886737 -.00000052  00000-0  68279-3 0  9998
2 16118  25.1605 126.3114 7165068 239.3262  32.2377  2.29193116 62811

Verfolge IUS R/B(1) in Echtzeit mit AllMySat

Download on the App Store